Powrót do katalogu

FENGYUN 1C DEB

LostPO
NORAD 38826·DEBRIS·🇨🇳 China

Wystrzelony May 10, 1999 z Taiyuan Satellite Launch Center

Loading…

Następne Przeloty (najbliższe 24 godziny)

TLE

NieaktualneSource: Space-Track

Epoka: Dec 13, 2021, 02:18 UTC

1 38826U 99025EVS 21347.09638902  .00000747  00000-0  33755-3 0  9990
2 38826  99.8843 304.2173 0055028 295.6066  63.9429 14.24985456559239

Śledź FENGYUN 1C DEB w czasie rzeczywistym z AllMySat

Download on the App Store